Preview of NWS' New Version of Forecast
This preview is not operational and should not be used for support decisions.

Regional Weather Roundup (RWR)

Issued by National Weather Service (NWS)

                            
000
ASUS45 KBOU 180810
RWRCO 

WEATHER ROUNDUP FOR COLORADO
NATIONAL WEATHER SERVICE DENVER/BOULDER CO
200 AM MDT THU APR 18 2019

NOTE: "FAIR" INDICATES FEW OR NO CLOUDS BELOW 12000 FEET WITH NO
SIGNIFICANT WEATHER AND/OR OBSTRUCTIONS TO VISIBILITY.

COZ001>005-013-030-031-180900-
...NORTHWEST COLORADO...
  
CITY           SKY/WX    TMP DP  RH WIND       PRES   REMARKS
CRAIG          CLOUDY    40  30  67 W5        30.23S                  
HAYDEN         CLOUDY    39  30  70 W10       30.24S                  
MEEKER         FAIR      38  27  64 NW7       30.24S                  
RANGELY        FAIR      39  29  69 CALM      30.23R                  
RABBIT EARS PA HVY SNOW  27  27 100 W12G25    30.23S VSB 1/4 WCI  16  
STEAMBOAT SPGS CLOUDY    38  30  73 W10       30.21S                  
WALDEN         CLOUDY    34  23  64 W8        30.20F WCI  27          
$$

COZ006>008-011-180900-
...WEST CENTRAL VALLEYS...
  
CITY           SKY/WX    TMP DP  RH WIND       PRES   REMARKS
GRAND JUNCTION FAIR      48  28  46 VRB3      30.19R                  
MONTROSE       FAIR      40  23  50 SE7       30.21R                  
EAGLE          CLOUDY    38  24  57 CALM      30.22R                  
RIFLE          FAIR      42  27  55 S3        30.21R                  
DELTA          FAIR      48  25  41 CALM      30.17R                  
NUCLA          FAIR      45  19  36 E6        30.22R                  
$$

COZ017>023-064>068-180900-
...SOUTHWEST COLORADO...
  
CITY           SKY/WX    TMP DP  RH WIND       PRES   REMARKS
DURANGO        FAIR      47  19  33 N12       30.07S                  
CORTEZ         FAIR      45  25  45 NW7       30.14S                  
PAGOSA SPRINGS FAIR      37  22  55 CALM      30.11S                  
TELLURIDE      MOCLDY    34  23  64 CALM      30.26R                  
WOLF CREEK PAS FAIR      27  10  50 NW6       30.27S WCI  20          
$$

COZ009-010-012-014-032>034-037-058>063-180900-
...CENTRAL COLORADO...
  
CITY           SKY/WX    TMP DP  RH WIND       PRES   REMARKS
ASPEN          CLOUDY    39  22  50 N7        30.21R                  
BUENA VISTA    FAIR      40  17  38 NW15G25   30.14S                  
COPPER MTN     SNOW      25  21  86 W14G22    30.25F VSB 1/2 WCI  13  
BERTHOUD PASS  CLOUDY    18   7  62 NW35G45   30.20R WCI  -3          
COTTONWOOD PAS FAIR      34  16  47 NW10G17   30.17F WCI  26          
GUNNISON       MOCLDY    34  22  61 W3        30.20R                  
GRANBY         FAIR      34  26  72 W14G22    30.20R WCI  25          
KREMMLING      CLOUDY    37  28  70 N3        30.22S                  
LEADVILLE      CLOUDY    29  21  72 N6        30.22R WCI  23          
MONARCH PASS   MOCLDY    23  14  68 SW13G21   30.34S WCI  11          
SALIDA         FAIR      41  19  42 W7        30.20S                  
SUNLIGHT       MOCLDY    23  21  93 NW7G20    30.32R WCI  15          
WILKERSON PASS FAIR      27  16  63 N10G21    30.23S WCI  17          
$$

COZ069>075-180900-
...SAN LUIS VALLEY/SANGRE DE CRISTO MOUNTAINS...
  
CITY           SKY/WX    TMP DP  RH WIND       PRES   REMARKS
ALAMOSA        FAIR      34  21  59 MISG      30.09R                  
DEL NORTE      FAIR      35  17  48 NW6       30.14R WCI  30          
LA VETA PASS   NOT AVBL                                               
SAGUACHE       FAIR      39  19  45 CALM      30.15R                  
$$

COZ035-036-038>040-180900-
...NORTHERN COLORADO FRONT RANGE...
  
CITY           SKY/WX    TMP DP  RH WIND       PRES   REMARKS
DENVER INTL AP CLOUDY    42  36  79 CALM      30.11R                  
AURORA         MOCLDY    42  36  79 CALM      30.11S                  
FRONT RANGE AP CLOUDY    42  38  86 CALM      30.12S                  
ERIE MUNI ARPT MOCLDY    42  36  79 CALM      30.16F                  
BOULDER MUN AP MOCLDY    43  36  75 SE5       30.11S                  
CENTENNIAL     CLOUDY    40  36  86 CALM      30.12S                  
BROOMFIELD     FAIR      39  34  81 S3        30.12F                  
FORT COLLINS   CLOUDY    47  34  60 VRB7G23   30.11R                  
LONGMONT       CLOUDY    45  36  71 CALM      30.13S                  
$$

COZ041-046-047-076>085-087-088-180900-
...PIKES PEAK/PALMER DIVIDE AND SOUTHERN FOOTHILLS...
  
CITY           SKY/WX    TMP DP  RH WIND       PRES   REMARKS
COLO. SPRINGS  MOCLDY    42  32  67 N6        30.11R                  
A. F. ACADEMY  CLOUDY    40  33  76 N22       30.10R                  
SCHRIEVER AFB  NOT AVBL                                               
CHEYENNE MTN   MOCLDY    39  33  77 NW14      30.06R                  
ELLICOTT         N/A    N/A N/A N/A NE12      30.09R                  
FALCON         MOCLDY    38  33  85 N15G26    30.12R                  
FORT CARSON    FAIR      40  33  77 N13       30.10R                  
LIMON          LGT RAIN  38  37  97 N14       30.10R                  
MONUMENT HILL  DRIZZLE   34  34 100 N12G25    30.15R WCI  25          
CANON CITY     NOT AVBL                                               
WALSENBURG     NOT AVBL                                               
TRINIDAD       CLOUDY    42  38  85 NW5       30.05R                  
$$

COZ042>045-048>051-090-091-180900-
...NORTHEAST COLORADO...
  
CITY           SKY/WX    TMP DP  RH WIND       PRES   REMARKS
GREELEY ARPT   FAIR      43  35  73 N13       30.10R                  
AKRON          CLOUDY    40  38  93 W10       30.06R                  
BURLINGTON     LGT RAIN  45  37  73 N23G40    30.07R                  
WRAY           FAIR      43  37  81 NW3       30.02R                  
YUMA           NOT AVBL                                               
STERLING       FAIR      39  39 100 NW12      30.05R                  
HOLYOKE        FAIR      43  39  87 W7        30.02R                  
FORT MORGAN      N/A     42  34  73 NW13      30.09S                  
$$

COZ086-089-092>099-180900-
...SOUTHEAST COLORADO...
  
CITY           SKY/WX    TMP DP  RH WIND       PRES   REMARKS
PUEBLO         CLOUDY    47  40  76 N13       30.09R                  
LA JUNTA       CLOUDY    50  30  46 N13       30.03R                  
LAMAR          LGT RAIN  49  34  56 N7        30.01R                  
SPRINGFIELD      N/A     45  32  60 N10       29.98R                  
$$